When you browse on this site, cookies collect data to enhance your experience and personalize the content and advertising you see.
Visit our Privacy Policy to learn more. By continuing to use the site, you agree to this use of cookies and data.
  • In Österreich
  • Länderverzeichnis
  • Für 7 Tage
  • Wassertemperatur
  • Wetterkarte
  • News
  • Widgets
  • user-avatar
    Anmelden

    Stündliche Wetter Ricaurte

    Heute, 17 November, Sonntag

    Zeit Temperatur Niederschläge Wind Luftdruck Luftfeuchtigkeit
    00:00 +25°C° 0.4 mm 1 m/S 735 mmHg 88%
    01:00 +23°C° 0 mm 0 m/S 734 mmHg 87%
    02:00 +23°C° 0.7 mm 0 m/S 734 mmHg 88%
    03:00 +23°C° 0.7 mm 0 m/S 734 mmHg 89%
    04:00 +22°C° 0.7 mm 0 m/S 734 mmHg 89%
    05:00 +23°C° 0.2 mm 0 m/S 735 mmHg 89%
    06:00 +23°C° 0.2 mm 0 m/S 735 mmHg 88%
    07:00 +24°C° 0 mm 0 m/S 735 mmHg 85%
    08:00 +27°C° 0 mm 1 m/S 735 mmHg 81%
    09:00 +28°C° 0 mm 1 m/S 735 mmHg 77%
    10:00 +30°C° 0 mm 2 m/S 735 mmHg 72%
    11:00 +31°C° 0 mm 2 m/S 734 mmHg 68%
    12:00 +32°C° 0 mm 2 m/S 733 mmHg 64%
    13:00 +34°C° 0 mm 2 m/S 732 mmHg 60%
    14:00 +33°C° 0 mm 1 m/S 732 mmHg 61%
    15:00 +33°C° 0 mm 1 m/S 732 mmHg 61%
    16:00 +33°C° 0 mm 1 m/S 732 mmHg 62%
    17:00 +31°C° 0.5 mm 1 m/S 732 mmHg 68%
    18:00 +29°C° 0.5 mm 1 m/S 733 mmHg 73%
    19:00 +27°C° 0.5 mm 1 m/S 734 mmHg 79%
    20:00 +27°C° 0.2 mm 1 m/S 734 mmHg 82%
    21:00 +26°C° 0.2 mm 1 m/S 735 mmHg 84%
    22:00 +26°C° 0.2 mm 1 m/S 735 mmHg 86%
    23:00 +25°C° 0.4 mm 1 m/S 735 mmHg 87%

    Morgen, 18 November, Montag

    Zeit Temperatur Niederschläge Wind Luftdruck Luftfeuchtigkeit
    00:00 +25°C° 0.4 mm 1 m/S 735 mmHg 88%
    01:00 +25°C° 0.4 mm 1 m/S 734 mmHg 89%
    02:00 +24°C° 0.4 mm 1 m/S 734 mmHg 89%
    03:00 +22°C° 0.4 mm 0 m/S 734 mmHg 89%
    04:00 +22°C° 0.4 mm 0 m/S 734 mmHg 90%
    05:00 +23°C° 0.1 mm 0 m/S 735 mmHg 89%
    06:00 +23°C° 0.1 mm 0 m/S 735 mmHg 87%
    07:00 +24°C° 0.1 mm 0 m/S 736 mmHg 86%
    08:00 +25°C° 0 mm 0 m/S 736 mmHg 81%
    09:00 +29°C° 0 mm 1 m/S 735 mmHg 76%
    10:00 +30°C° 0 mm 1 m/S 735 mmHg 71%
    11:00 +31°C° 0.1 mm 1 m/S 735 mmHg 68%
    12:00 +32°C° 0.1 mm 1 m/S 734 mmHg 64%
    13:00 +31°C° 0.1 mm 0 m/S 733 mmHg 60%
    14:00 +33°C° 0.3 mm 1 m/S 733 mmHg 61%
    15:00 +33°C° 0.3 mm 1 m/S 733 mmHg 62%
    16:00 +33°C° 0.3 mm 1 m/S 733 mmHg 62%
    17:00 +31°C° 0.1 mm 1 m/S 733 mmHg 68%
    18:00 +29°C° 0.1 mm 1 m/S 734 mmHg 74%
    19:00 +27°C° 0.1 mm 1 m/S 734 mmHg 80%
    20:00 +27°C° 0.1 mm 1 m/S 735 mmHg 81%
    21:00 +26°C° 0.1 mm 1 m/S 735 mmHg 82%
    22:00 +26°C° 0.1 mm 1 m/S 736 mmHg 83%
    23:00 +25°C° 0.9 mm 1 m/S 736 mmHg 85%

    übermorgen, 19 November, Dienstag

    Zeit Temperatur Niederschläge Wind Luftdruck Luftfeuchtigkeit
    00:00 +25°C° 0.9 mm 1 m/S 735 mmHg 86%
    01:00 +25°C° 0.9 mm 1 m/S 735 mmHg 88%
    02:00 +22°C° 0.7 mm 0 m/S 735 mmHg 89%
    03:00 +22°C° 0.7 mm 0 m/S 735 mmHg 90%
    04:00 +22°C° 0.7 mm 0 m/S 735 mmHg 92%
    05:00 +22°C° 0.2 mm 0 m/S 735 mmHg 91%
    06:00 +23°C° 0.2 mm 0 m/S 736 mmHg 89%
    07:00 +23°C° 0.2 mm 0 m/S 736 mmHg 88%
    08:00 +25°C° 0.1 mm 0 m/S 736 mmHg 84%
    09:00 +26°C° 0.1 mm 0 m/S 737 mmHg 79%
    10:00 +27°C° 0.1 mm 0 m/S 737 mmHg 75%
    11:00 +30°C° 0.1 mm 1 m/S 736 mmHg 70%
    12:00 +32°C° 0.1 mm 1 m/S 735 mmHg 65%
    13:00 +33°C° 0.1 mm 1 m/S 734 mmHg 61%
    14:00 +33°C° 0.1 mm 1 m/S 734 mmHg 61%
    15:00 +33°C° 0.1 mm 1 m/S 734 mmHg 61%
    16:00 +32°C° 0.1 mm 1 m/S 734 mmHg 61%
    17:00 +31°C° 0.3 mm 1 m/S 734 mmHg 67%
    18:00 +29°C° 0.3 mm 1 m/S 735 mmHg 73%
    19:00 +27°C° 0.3 mm 1 m/S 735 mmHg 79%
    20:00 +27°C° 0.5 mm 1 m/S 736 mmHg 81%
    21:00 +26°C° 0.5 mm 1 m/S 736 mmHg 83%
    22:00 +25°C° 0.5 mm 1 m/S 737 mmHg 85%
    23:00 +25°C° 0.6 mm 1 m/S 736 mmHg 86%

    20 November, Mittwoch

    Zeit Temperatur Niederschläge Wind Luftdruck Luftfeuchtigkeit
    00:00 +25°C° 0.6 mm 1 m/S 736 mmHg 87%
    01:00 +24°C° 0.6 mm 1 m/S 736 mmHg 88%
    02:00 +24°C° 0.7 mm 1 m/S 736 mmHg 88%
    03:00 +22°C° 0.7 mm 0 m/S 736 mmHg 89%
    04:00 +22°C° 0.7 mm 0 m/S 735 mmHg 90%
    05:00 +22°C° 0.2 mm 0 m/S 736 mmHg 89%
    06:00 +23°C° 0.2 mm 0 m/S 736 mmHg 88%
    07:00 +23°C° 0.2 mm 0 m/S 737 mmHg 87%
    08:00 +25°C° 0 mm 0 m/S 737 mmHg 82%
    09:00 +28°C° 0 mm 1 m/S 737 mmHg 77%
    10:00 +30°C° 0 mm 1 m/S 737 mmHg 72%
    11:00 +31°C° 0.2 mm 1 m/S 736 mmHg 68%
    12:00 +32°C° 0.2 mm 1 m/S 735 mmHg 65%
    13:00 +33°C° 0.2 mm 1 m/S 735 mmHg 62%
    14:00 +32°C° 0.3 mm 1 m/S 734 mmHg 62%
    15:00 +32°C° 0.3 mm 1 m/S 734 mmHg 63%
    16:00 +32°C° 0.3 mm 1 m/S 733 mmHg 64%
    17:00 +30°C° 0.4 mm 1 m/S 734 mmHg 69%
    18:00 +29°C° 0.4 mm 1 m/S 735 mmHg 75%
    19:00 +27°C° 0.4 mm 1 m/S 735 mmHg 81%
    20:00 +26°C° 0.7 mm 1 m/S 736 mmHg 83%
    21:00 +26°C° 0.7 mm 1 m/S 736 mmHg 85%
    22:00 +25°C° 0.7 mm 1 m/S 737 mmHg 87%
    23:00 +25°C° 0.6 mm 1 m/S 736 mmHg 88%

    21 November, Donnerstag

    Zeit Temperatur Niederschläge Wind Luftdruck Luftfeuchtigkeit
    00:00 +24°C° 0.6 mm 1 m/S 736 mmHg 89%
    01:00 +22°C° 0.6 mm 0 m/S 736 mmHg 90%
    02:00 +22°C° 0.8 mm 0 m/S 736 mmHg 91%
    03:00 +22°C° 0.8 mm 0 m/S 736 mmHg 91%
    04:00 +22°C° 0.8 mm 0 m/S 736 mmHg 92%
    05:00 +22°C° 0.4 mm 0 m/S 736 mmHg 92%
    06:00 +23°C° 0.4 mm 0 m/S 737 mmHg 91%
    07:00 +23°C° 0.4 mm 0 m/S 737 mmHg 90%
    08:00 +24°C° 0.4 mm 0 m/S 737 mmHg 87%
    09:00 +25°C° 0.4 mm 0 m/S 737 mmHg 84%
    10:00 +28°C° 0.4 mm 1 m/S 737 mmHg 81%
    11:00 +29°C° 0.2 mm 1 m/S 736 mmHg 76%
    12:00 +30°C° 0.2 mm 1 m/S 735 mmHg 72%
    13:00 +31°C° 0.2 mm 1 m/S 735 mmHg 68%
    14:00 +31°C° 0.2 mm 1 m/S 734 mmHg 68%
    15:00 +29°C° 0.2 mm 0 m/S 734 mmHg 68%
    16:00 +29°C° 0.2 mm 0 m/S 733 mmHg 69%
    17:00 +27°C° 0.4 mm 0 m/S 734 mmHg 74%
    18:00 +26°C° 0.4 mm 0 m/S 734 mmHg 79%
    19:00 +24°C° 0.4 mm 0 m/S 735 mmHg 84%
    20:00 +24°C° 0.6 mm 0 m/S 735 mmHg 85%
    21:00 +26°C° 0.6 mm 1 m/S 736 mmHg 86%
    22:00 +25°C° 0.6 mm 1 m/S 736 mmHg 88%
    23:00 +25°C° 0.9 mm 1 m/S 736 mmHg 88%

    22 November, Freitag

    Zeit Temperatur Niederschläge Wind Luftdruck Luftfeuchtigkeit
    00:00 +25°C° 0.9 mm 1 m/S 736 mmHg 88%
    01:00 +23°C° 0.9 mm 0 m/S 735 mmHg 89%
    02:00 +23°C° 0.7 mm 0 m/S 735 mmHg 89%
    03:00 +22°C° 0.7 mm 0 m/S 735 mmHg 90%
    04:00 +22°C° 0.7 mm 0 m/S 735 mmHg 91%
    05:00 +22°C° 0.4 mm 0 m/S 735 mmHg 91%
    06:00 +23°C° 0.4 mm 0 m/S 736 mmHg 91%
    07:00 +23°C° 0.4 mm 0 m/S 736 mmHg 90%
    08:00 +24°C° 0.1 mm 0 m/S 736 mmHg 86%
    09:00 +27°C° 0.1 mm 1 m/S 737 mmHg 82%
    10:00 +28°C° 0.1 mm 1 m/S 737 mmHg 79%
    11:00 +29°C° 0.1 mm 1 m/S 736 mmHg 74%
    12:00 +30°C° 0.1 mm 1 m/S 735 mmHg 70%
    13:00 +31°C° 0.1 mm 1 m/S 734 mmHg 66%
    14:00 +31°C° 0.1 mm 1 m/S 734 mmHg 66%
    15:00 +31°C° 0.1 mm 1 m/S 733 mmHg 65%
    16:00 +31°C° 0.1 mm 1 m/S 733 mmHg 65%
    17:00 +30°C° 0.2 mm 1 m/S 733 mmHg 71%
    18:00 +28°C° 0.2 mm 1 m/S 734 mmHg 77%
    19:00 +26°C° 0.2 mm 1 m/S 734 mmHg 83%
    20:00 +26°C° 0.3 mm 1 m/S 735 mmHg 84%
    21:00 +26°C° 0.3 mm 1 m/S 735 mmHg 85%
    22:00 +25°C° 0.3 mm 1 m/S 736 mmHg 86%
    23:00 +25°C° 0.3 mm 1 m/S 736 mmHg 87%
    Mehr zeigen